7 * 24
多渠道服务支持
STARLINK-31973是美国太空探索技术公司星链星座的一员,于2024年6月1日发射入轨,属于星链低轨互联网卫星组网的新增卫星。星链系统旨在为全球提供高速低延迟互联网服务,该卫星加入后进一步完善了星座覆盖能力,推进了星链星座全域组网部署进程。
美国
(US)
| 数据来源 | 国际轨道数据 |
| 星历时间: | 2026-09-04T03:45:18+0800 16小时前 查看轨道信息 |
| 半长轴: | 6861.129km |
| 偏心率: | 0.000127 |
| 轨道倾角: | 43.004° |
| 近地点辐角 | 262.449° |
| 升交点赤经 | 46.723° |
| 平近点角 | 97.621° |
| 近地点: | 482.12km |
| 远地点: | 483.864km |
| 周期: | 94.266分钟 |
| 每日圈数: | 15.275991 |